[[{"header":{"parameterUnit":"m.s-1","parameterCategory":1,"la1":30.2991,"la2":30.254,"lo1":-89.0895,"lo2":-89.0444,"dy":0.0017,"dx":0.0017,"nx":28,"ny":28,"refTime":"2024-10-21T21:00:00:Z","depth":0,"parameterNumber":2,"parameterNumberName":"U-component_of_WINDS"},"data":[0,0,0,0,0,0,0,0,0,0,0,0,0,0,0,0,0,0,0,0,0,0,0,0,0,0,0,0,0,0,0,0,0,0,0,0,0,0,0,0,0,0,0,0,0,0,0,0,0,0,0,0,0,0,0,0,0,0,-1.6062,-1.6062,0,-1.605,-1.605,-1.605,-1.5985,-1.5983,-1.5982,-1.598,-1.5969,-1.597,-1.5971,0,0,0,0,0,0,0,0,0,0,0,0,0,-1.6034,-1.6035,-1.6062,-1.6062,-1.6062,-1.605,-1.605,-1.605,-1.5985,-1.5983,-1.5981,-1.598,-1.5968,-1.597,-1.5971,0,0,0,0,0,0,0,0,0,0,0,0,0,-1.6037,-1.6035,-1.6062,-1.6028,-1.6025,-1.605,-1.605,-1.605,-1.5986,-1.5983,-1.5981,-1.5979,-1.5968,-1.5969,-1.5971,-1.6028,0,0,-1.5976,-1.5977,0,0,0,0,0,0,0,0,-1.6036,-1.6038,-1.6034,-1.6031,-1.6027,-1.6017,-1.6035,-1.6042,-1.5986,-1.6001,-1.598,-1.5978,-1.5987,-1.5987,-1.5989,-1.6027,-1.6027,-1.5976,-1.5977,-1.5978,-1.5979,0,0,0,0,0,0,0,-1.6036,-1.6038,-1.6057,-1.6034,-1.603,-1.6015,-1.6013,-1.6036,-1.6007,-1.5999,-1.5994,-1.5994,-1.5984,-1.5988,-1.5989,-1.6027,-1.5976,-1.5978,-1.5979,-1.598,-1.6115,-1.6117,0,0,0,0,0,0,-1.6041,-1.6038,-1.6058,-1.6057,-1.6026,-1.6017,-1.6015,-1.6022,-1.6006,-1.6002,-1.5996,-1.5991,-1.5986,-1.5987,-1.5988,-1.6056,-1.5978,-1.598,-1.5981,-1.6112,-1.6116,-1.6118,0,0,0,0,0,0,-1.604,-1.6043,-1.6058,-1.6046,-1.6047,-1.602,-1.6029,-1.6023,-1.6027,-1.6004,-1.5998,-1.6005,-1.5984,-1.5985,-1.6019,-1.6054,-1.598,-1.5982,-1.6109,-1.6113,-1.6117,-1.6191,0,0,0,0,0,0,-1.604,-1.6043,-1.6063,-1.6047,-1.6048,-1.6089,-1.6031,-1.6025,-1.603,-1.6023,-1.601,-1.6006,-1.5983,-1.6017,-1.6021,-1.6055,-1.5983,-1.6106,-1.6111,-1.6116,-1.6185,-1.6196,-1.6206,0,0,0,0,0,-1.6039,-1.6084,-1.6065,-1.6067,-1.6072,-1.6091,-1.6091,-1.6063,-1.6033,-1.6054,-1.604,-1.6007,-1.605,-1.6021,-1.6025,-1.606,-1.6104,-1.611,-1.6115,-1.618,-1.6194,-1.6206,0,0,0,0,0,0,-1.6104,-1.6081,-1.6059,-1.61,-1.6098,-1.608,-1.6105,-1.6078,-1.6085,-1.6078,-1.6043,-1.6041,-1.6081,-1.6074,-1.6042,-1.6117,-1.6072,-1.6078,-1.6119,-1.6133,-1.6143,-1.6144,-1.5985,0,0,0,0,0,-1.6123,-1.6139,-1.6119,-1.6157,-1.6157,-1.6132,-1.6138,-1.6117,-1.6114,-1.6112,-1.61,-1.6099,-1.6113,-1.6122,-1.6133,-1.6184,-1.6182,-1.6211,-1.6221,-1.623,-1.6237,-1.6267,-1.628,-1.6137,-1.6137,-1.6137,0,0,-1.6163,-1.6152,-1.6164,-1.617,-1.6165,-1.6185,-1.6131,-1.6152,-1.6167,-1.6116,-1.6147,-1.6139,-1.6136,-1.6179,-1.6198,-1.6174,-1.6276,-1.6238,-1.6245,-1.6246,-1.6274,-1.6288,-1.63,-1.6141,-1.6141,-1.614,0,0,-1.6244,-1.6237,-1.627,-1.6268,-1.6263,-1.6246,-1.6254,-1.6241,-1.6234,-1.6265,-1.6229,-1.6246,-1.6269,-1.6269,-1.6272,-1.6359,-1.633,-1.6364,-1.642,-1.645,-1.6461,-1.6471,-1.6504,-1.6516,-1.637,-1.6371,-1.6371,0,-1.6294,-1.632,-1.629,-1.6315,-1.632,-1.6276,-1.631,-1.6309,-1.6308,-1.6313,-1.6287,-1.6319,-1.6313,-1.6357,-1.6379,-1.6382,-1.6392,-1.6365,-1.6462,-1.6471,-1.648,-1.6512,-1.6524,-1.6375,-1.6374,-1.6374,-1.6374,0,-1.6383,-1.6403,-1.643,-1.6431,-1.6439,-1.6468,-1.6444,-1.6456,-1.6436,-1.6423,-1.6457,-1.645,-1.646,-1.6469,-1.6448,-1.6512,-1.6498,-1.6468,-1.6422,-1.6498,-1.6528,-1.6539,-1.6381,-1.6379,-1.6378,-1.6377,0,0,-1.6503,-1.649,-1.6501,-1.6502,-1.6496,-1.651,-1.654,-1.655,-1.6563,-1.6564,-1.659,-1.6613,-1.6586,-1.6589,-1.6569,-1.6595,-1.6668,-1.6561,-1.6561,-1.6583,-1.6741,-1.6765,-1.6779,-1.6649,-1.6651,-1.6653,-1.6742,0,-1.6583,-1.6631,-1.6606,-1.6658,-1.6678,-1.6638,-1.6664,-1.6664,-1.6654,-1.667,-1.6658,-1.6676,-1.6638,-1.6641,-1.6665,-1.6654,-1.6699,-1.6647,-1.6674,-1.6675,-1.6677,-1.6794,-1.6818,-1.6903,-1.6753,-1.6755,-1.6757,0,-1.6681,-1.6689,-1.6744,-1.6737,-1.6744,-1.6767,-1.6777,-1.6793,-1.6793,-1.6784,-1.6791,-1.6765,-1.6796,-1.6751,-1.6794,-1.6759,-1.6769,-1.6766,-1.6769,-1.6771,-1.6721,-1.6801,-1.6929,-1.6942,-1.6774,-1.6772,-1.6771,0,-1.6766,-1.679,-1.6826,-1.6829,-1.6821,-1.684,-1.6837,-1.6836,-1.6845,-1.6854,-1.6861,-1.6873,-1.688,-1.6892,-1.6872,-1.684,-1.6919,-1.6871,-1.6914,-1.6915,-1.6932,-1.6931,-1.7065,-1.6937,-1.6937,-1.6937,-1.6936,0,-1.6858,-1.6893,-1.6865,-1.6887,-1.6927,-1.69,-1.694,-1.6934,-1.6933,-1.6956,-1.6922,-1.6944,-1.6916,-1.6936,-1.692,-1.696,-1.6963,-1.6958,-1.6954,-1.6962,-1.6963,-1.6968,-1.6962,-1.694,-1.6939,-1.6939,-1.6938,0,-1.6959,-1.694,-1.6978,-1.6969,-1.6968,-1.6998,-1.6991,-1.7013,-1.7002,-1.7031,-1.7036,-1.7019,-1.7041,-1.7022,-1.7043,-1.7033,-1.7087,-1.7073,-1.7087,-1.7083,-1.7128,-1.7125,-1.727,-1.7289,-1.7148,-1.715,-1.7151,0,-1.7019,-1.7045,-1.704,-1.7053,-1.7053,-1.7074,-1.7084,-1.7059,-1.7072,-1.7077,-1.7099,-1.7118,-1.7132,-1.717,-1.7161,-1.7178,-1.7165,-1.7215,-1.7167,-1.7176,-1.7168,-1.7168,-1.7172,-1.7225,-1.7227,-1.7228,-1.7229,0,-1.7128,-1.7119,-1.7134,-1.7149,-1.7162,-1.7171,-1.7178,-1.7191,-1.7167,-1.7183,-1.7205,-1.7217,-1.724,-1.7261,-1.7275,-1.7275,-1.7249,-1.7245,-1.7256,-1.7264,-1.7272,-1.7271,-1.7115,-1.7241,-1.724,-1.7239,-1.7238,-1.7238,-1.7211,-1.7234,-1.7236,-1.7255,-1.7259,-1.7267,-1.7288,-1.7281,-1.7299,-1.7316,-1.7301,-1.733,-1.7333,-1.735,-1.7354,-1.7377,-1.7356,-1.7372,-1.7376,-1.7381,-1.7388,-1.7268,-1.7379,-1.7379,-1.7379,-1.7378,-1.7378,0,-1.732,-1.732,-1.7339,-1.7351,-1.7367,-1.7342,-1.735,-1.7366,-1.7391,-1.7397,-1.7413,-1.7441,-1.7462,-1.7456,-1.7475,-1.7495,-1.7485,-1.7502,-1.75,-1.7501,-1.7404,-1.7393,-1.751,-1.751,-1.751,-1.751,-1.751,-1.751,-1.7379,-1.7418,-1.741,-1.7452,-1.7451,-1.7479,-1.7486,-1.7495,-1.75,-1.7533,-1.7551,-1.7546,-1.7549,-1.7569,-1.7588,-1.7586,-1.7596,-1.7617,-1.7611,-1.7521,-1.7508,-1.7495,-1.7485,-1.7619,-1.7619,-1.7707,-1.7707,-1.7708]},{"header":{"parameterUnit":"m.s-1","parameterCategory":1,"la1":30.2991,"la2":30.254,"lo1":-89.0895,"lo2":-89.0444,"dy":0.0017,"dx":0.0017,"nx":28,"ny":28,"refTime":"2024-10-21T21:00:00:Z","depth":0,"parameterNumber":3,"parameterNumberName":"V-component_of_WINDS"},"data":[0,0,0,0,0,0,0,0,0,0,0,0,0,0,0,0,0,0,0,0,0,0,0,0,0,0,0,0,0,0,0,0,0,0,0,0,0,0,0,0,0,0,0,0,0,0,0,0,0,0,0,0,0,0,0,0,0,0,0.8396,0.8396,0,0.8395,0.8395,0.8395,0.8473,0.8475,0.8477,0.8479,0.8472,0.847,0.8468,0,0,0,0,0,0,0,0,0,0,0,0,0,0.8463,0.8461,0.8396,0.8396,0.8396,0.8395,0.8395,0.8395,0.8472,0.8475,0.8477,0.848,0.8473,0.847,0.8468,0,0,0,0,0,0,0,0,0,0,0,0,0,0.8445,0.8461,0.8396,0.8435,0.8439,0.8395,0.8395,0.8395,0.8472,0.8475,0.8478,0.8481,0.8474,0.8471,0.8468,0.8385,0,0,0.8458,0.8456,0,0,0,0,0,0,0,0,0.8445,0.8442,0.8429,0.8432,0.8436,0.8437,0.8416,0.8391,0.8471,0.8459,0.8479,0.8483,0.8458,0.8456,0.8449,0.8385,0.8384,0.8458,0.8456,0.8454,0.8453,0,0,0,0,0,0,0,0.8447,0.8443,0.8396,0.8429,0.8433,0.8451,0.8452,0.8411,0.8441,0.846,0.8466,0.8465,0.846,0.8452,0.8449,0.8384,0.8458,0.8455,0.8453,0.8452,0.8252,0.8248,0,0,0,0,0,0,0.8443,0.8443,0.8396,0.8396,0.8449,0.8447,0.8448,0.8434,0.8441,0.8446,0.8462,0.8469,0.8456,0.8453,0.8449,0.8352,0.8454,0.8451,0.8449,0.8255,0.8251,0.8247,0,0,0,0,0,0,0.8444,0.8438,0.8396,0.8421,0.8417,0.8443,0.8426,0.8432,0.8423,0.8443,0.8448,0.8448,0.8458,0.8454,0.8401,0.8353,0.845,0.8447,0.8259,0.8254,0.8249,0.8157,0,0,0,0,0,0,0.8446,0.8438,0.8408,0.842,0.8415,0.8348,0.8423,0.843,0.8418,0.8427,0.8431,0.8435,0.846,0.8405,0.8397,0.835,0.8444,0.8263,0.8257,0.8251,0.8164,0.8149,0.8137,0,0,0,0,0,0.8448,0.8381,0.8406,0.84,0.8378,0.8345,0.8342,0.8374,0.8414,0.8383,0.8396,0.8435,0.836,0.8399,0.8391,0.8342,0.8266,0.8259,0.8251,0.817,0.8152,0.8137,0,0,0,0,0,0,0.8361,0.8383,0.8411,0.8346,0.8343,0.8358,0.832,0.8354,0.8338,0.8346,0.8385,0.8385,0.8325,0.8329,0.8372,0.8262,0.832,0.8311,0.8261,0.8244,0.8231,0.8229,0.8442,0,0,0,0,0,0.8335,0.8308,0.8328,0.8269,0.8266,0.8293,0.828,0.8305,0.8303,0.8301,0.831,0.8305,0.828,0.8263,0.8242,0.8167,0.8167,0.8129,0.8115,0.8104,0.8094,0.8053,0.8035,0.8222,0.8222,0.8222,0,0,0.8279,0.8288,0.8268,0.8252,0.8252,0.8221,0.8291,0.8256,0.8233,0.8295,0.8245,0.8252,0.8249,0.8184,0.8156,0.8185,0.8043,0.8094,0.8084,0.8081,0.8043,0.8025,0.8009,0.8217,0.8218,0.8219,0,0,0.8162,0.8167,0.8118,0.8117,0.8118,0.8137,0.8125,0.8135,0.8142,0.8093,0.8139,0.8112,0.8069,0.8065,0.8057,0.7939,0.7974,0.7932,0.7857,0.7817,0.7802,0.7789,0.7745,0.7729,0.7922,0.7922,0.7922,0,0.8092,0.8049,0.8088,0.8049,0.804,0.8097,0.8046,0.8044,0.8037,0.8028,0.8062,0.8009,0.8012,0.7946,0.7917,0.791,0.7896,0.7929,0.7802,0.7789,0.7778,0.7736,0.7719,0.7917,0.7917,0.7918,0.7918,0,0.7962,0.7932,0.7892,0.7885,0.7871,0.7827,0.7857,0.7839,0.7865,0.788,0.7829,0.7834,0.7814,0.7801,0.7826,0.7738,0.7756,0.7795,0.7854,0.7754,0.7715,0.7699,0.7909,0.7911,0.7913,0.7914,0,0,0.7787,0.7804,0.7788,0.7785,0.7791,0.7767,0.7725,0.7708,0.769,0.7684,0.7648,0.7611,0.7647,0.7638,0.7664,0.7629,0.7533,0.7672,0.7673,0.7644,0.7434,0.7402,0.7383,0.7557,0.7555,0.7552,0.7434,0,0.7671,0.7601,0.7635,0.756,0.7531,0.7587,0.755,0.7548,0.7561,0.7538,0.7552,0.7525,0.7576,0.7571,0.7539,0.7551,0.7491,0.7561,0.7522,0.752,0.7518,0.7364,0.733,0.7218,0.7419,0.7417,0.7415,0,0.7526,0.7515,0.7438,0.7449,0.7438,0.7404,0.739,0.7368,0.7367,0.7379,0.737,0.7404,0.7362,0.7422,0.7364,0.7411,0.7397,0.7401,0.7398,0.7392,0.7459,0.7351,0.7183,0.7165,0.7392,0.7394,0.7395,0,0.7403,0.7369,0.7318,0.7315,0.7327,0.7301,0.7305,0.7308,0.7295,0.7283,0.7275,0.7257,0.7247,0.7232,0.726,0.7302,0.7197,0.726,0.7203,0.7202,0.7176,0.7176,0.6999,0.7172,0.7172,0.7173,0.7173,0,0.7268,0.7218,0.7263,0.7231,0.7176,0.7216,0.716,0.7169,0.7172,0.7142,0.7189,0.7159,0.7199,0.7173,0.7195,0.7142,0.7137,0.7144,0.715,0.7138,0.7137,0.7127,0.7135,0.7168,0.7169,0.717,0.7171,0,0.712,0.7148,0.7096,0.7113,0.7116,0.7074,0.7087,0.7058,0.7076,0.7037,0.703,0.7056,0.7028,0.7056,0.7029,0.7043,0.6972,0.699,0.6972,0.6976,0.6916,0.692,0.6725,0.67,0.6891,0.6889,0.6888,0,0.703,0.6993,0.7006,0.699,0.6991,0.6965,0.6953,0.6991,0.6975,0.6972,0.6943,0.6919,0.6902,0.6854,0.687,0.685,0.6866,0.6799,0.6863,0.6852,0.6862,0.6862,0.6858,0.6785,0.6782,0.6781,0.6779,0,0.6868,0.6884,0.6865,0.685,0.6834,0.6825,0.6818,0.6802,0.6842,0.6822,0.6795,0.6781,0.6755,0.673,0.6715,0.6717,0.6753,0.676,0.6745,0.6731,0.672,0.6722,0.6933,0.6763,0.6765,0.6766,0.6767,0.6767,0.6744,0.6713,0.6717,0.6694,0.6694,0.6687,0.666,0.6675,0.6654,0.6636,0.666,0.6625,0.6626,0.6609,0.6608,0.6581,0.6609,0.6588,0.6582,0.6575,0.6565,0.6728,0.6578,0.6579,0.6579,0.658,0.658,0,0.6581,0.6587,0.6566,0.6556,0.6538,0.6577,0.6572,0.6554,0.6523,0.6522,0.6504,0.6472,0.6449,0.6464,0.6444,0.6419,0.6435,0.6412,0.6412,0.6412,0.6543,0.6556,0.6399,0.6399,0.6399,0.6399,0.6399,0.6399,0.6494,0.6443,0.646,0.641,0.6416,0.6384,0.6377,0.6371,0.637,0.6332,0.6314,0.6325,0.6329,0.631,0.6289,0.6294,0.6283,0.6253,0.6264,0.6385,0.6403,0.6419,0.6432,0.6251,0.6251,0.6135,0.6134,0.6133]}]]